Regional Weather Roundup
Issued by NWS

Home | Current Version | Previous Version | Text Only | Print | Product List | Glossary On
Versions: 1 2 3 4 5 6 7 8 9 10 11 12 13 14 15 16 17 18 19 20 21 22 23 24 25 26 27 28 29 30 31 32 33 34 35 36 37 38 39 40 41 42 43 44 45 46 47 48 49 50
000
ASUS43 KOAX 311610
RWRNE

WEATHER ROUNDUP FOR NEBRASKA
NATIONAL WEATHER SERVICE OMAHA NE
1100 AM CDT TUE MAY 31 2016

NOTES: SATELLITE DATA IS BEING USED TO AUGMENT CLOUD COVER ABOVE
       12000 FEET.
       "FAIR" INDICATES FEW OR NO CLOUDS BELOW 12,000 FEET WITH NO
       SIGNIFICANT WEATHER AND/OR OBSTRUCTIONS TO VISIBILITY.

  * THESE STATIONS DO NOT REPORT WEATHER SUCH AS RAIN...SNOW OR FOG.

NEZ001>004-019>022-054>056-311700-
NEBRASKA PANHANDLE

CITY           SKY/WX    TMP DP  RH WIND       PRES   REMARKS
SCOTTSBLUFF    CLOUDY    57  44  62 W9        30.13S
ALLIANCE       CLOUDY    57  41  55 W7        30.09F
CHADRON        PTSUNNY   63  32  31 W24G32    30.05F
KIMBALL        DRIZZLE   49  42  77 CALM      30.15F
SIDNEY         CLOUDY    51  42  71 NW6       30.14F
$$

NEZ057>060-069>072-079>082-311700-
SOUTHWEST NEBRASKA

CITY           SKY/WX    TMP DP  RH WIND       PRES   REMARKS
NORTH PLATTE   PTSUNNY   60  43  53 NW8       30.10S
IMPERIAL       CLOUDY    58  43  57 N13       30.11F
LEXINGTON      MOSUNNY   63  48  57 N15       30.07S
MCCOOK         MOSUNNY   64  48  56 N12       30.08F
OGALLALA       CLOUDY    55  49  80 CALM      30.11S
$$

NEZ005>010-023>029-035>040-094-311700-
NORTH CENTRAL NEBRASKA

CITY           SKY/WX    TMP DP  RH WIND       PRES   REMARKS
VALENTINE      CLOUDY    63  41  44 W21       29.99F
AINSWORTH      CLOUDY    58  43  57 SW5       30.02F
BROKEN BOW     CLOUDY    62  44  51 N12       30.05R
O`NEILL        PTSUNNY   65  44  45 NW9       30.01S
ORD            SUNNY     65  42  43 N14       30.02S
THEDFORD       CLOUDY    58  43  58 SW7       30.07S
$$

NEZ041-046>049-061>064-073>077-083>087-311700-
SOUTH CENTRAL NEBRASKA

CITY           SKY/WX    TMP DP  RH WIND       PRES   REMARKS
GRAND ISLAND   PTSUNNY   65  51  60 N15       30.02F
AURORA         CLOUDY    64  54  69 N12       30.01S
HASTINGS       CLOUDY    64  52  64 N13       30.01F
HEBRON         CLOUDY    68  59  74 N13       29.98R
HOLDREGE       SUNNY     63  49  61 N15       30.05S
KEARNEY *      CLOUDY    64  48  55 N13G20    30.05S
YORK           PTSUNNY   64  55  72 N18       29.99F
$$

NEZ011>018-030>034-042>045-311700-
NORTHEAST NEBRASKA

CITY           SKY/WX    TMP DP  RH WIND       PRES   REMARKS
NORFOLK        MOSUNNY   65  50  58 N15       29.99R
ALBION         MOSUNNY   65  50  58 N9G17     30.01S
BLAIR          CLOUDY    65  60  85 NW14      29.95S
FREMONT        CLOUDY    67  59  75 NW9       29.97S
TEKAMAH        PTSUNNY   67  60  78 NW16      29.95S
WAYNE          MOSUNNY   65  54  68 NW10G16   29.99S
$$

NEZ050>053-065>068-078-088>093-311700-
SOUTHEAST NEBRASKA

CITY           SKY/WX    TMP DP  RH WIND       PRES   REMARKS
LINCOLN        PTSUNNY   69  58  67 N15       29.97R
OMAHA EPPLEY   CLOUDY    67  60  78 NW14      29.93S
BEATRICE       CLOUDY    68  59  73 NW8       29.97S
FALLS CITY     LGT RAIN  75  62  64 W8        29.93S
NEBRASKA CITY  PTSUNNY   71  63  75 NW9       29.94R
PLATTSMOUTH    CLOUDY    72  64  74 NW10      29.94R
$$

NEZ044-045-051>053-067-311700-
OMAHA AREA

CITY           SKY/WX    TMP DP  RH WIND       PRES   REMARKS
OMAHA EPPLEY   CLOUDY    67  60  78 NW14      29.93S
BLAIR          CLOUDY    65  60  85 NW14      29.95S
FREMONT        CLOUDY    67  59  75 NW9       29.97S
MILLARD        CLOUDY    66  61  82 NW10      29.94F
OFFUTT AFB     CLOUDY    70  61  74 NW12      29.93R
PLATTSMOUTH    CLOUDY    72  64  74 NW10      29.94R
WAHOO          PTSUNNY   67  58  72 N13       29.96S
$$




USA.gov is the U.S. government's official web portal to all federal, state and local government web resources and services.